Location: Watson Lake
(60.1170°N, 128.8000°W)
Time: 06:29:43
(UTC-07:00)

Daily predictions for brighter satellites

Satellite Brightness Start Highest point End
(mag) Time Altitude Azimuth Time Altitude Azimuth Time Altitude Azimuth
NOSS 3-2 (A) 4.0 22:02:52 10° WNW 22:09:52 87° NNE 22:17:42 10° ESE
SPOT 5 2.9 22:08:26 10° SSE 22:13:20 79° ENE 22:18:00 10° NNW
ERS-1 Rocket 3.3 22:08:42 10° S 22:13:43 71° WSW 22:18:46 10° NNW
IGS 5A 4.4 22:10:18 10° SE 22:14:06 35° ENE 22:17:56 10° N
Cosmos 1655 Rocket 4.2 22:07:54 10° SSW 22:14:13 84° WNW 22:20:39 10° NNE
Cosmos 1943 Rocket 4.2 22:10:26 10° WNW 22:15:10 28° N 22:19:55 10° NE
Cosmos 1697 Rocket 2.8 22:10:48 10° SW 22:16:26 89° SSE 22:22:10 10° NE
Cosmos 1486 Rocket 4.2 22:12:04 10° NNW 22:17:21 64° NE 22:22:34 10° SE
Cosmos 2056 Rocket 3.7 22:12:20 10° SW 22:17:31 80° WNW 22:22:50 10° NNE
H-2A R/B 3.3 22:14:21 10° ESE 22:18:06 29° NE 22:21:57 10° N
Cosmos 2369 Rocket 4.2 22:14:34 10° WNW 22:19:30 28° N 22:24:24 10° ENE
Meteor 1-11 Rocket 3.8 22:14:43 10° S 22:20:30 70° ESE 22:26:12 10° NNE
DNEPR-1 R/B 4.3 22:17:45 10° WNW 22:21:55 50° N 22:26:12 10° E
Cosmos 1066 Rocket 4.4 22:16:53 10° NNW 22:22:11 55° ENE 22:27:30 10° SE
Cosmos 1602 3.9 22:19:55 10° SSW 22:23:46 79° WNW 22:27:39 10° NNE
COSMOS 2455 3.8 22:20:54 10° WNW 22:26:43 47° NNE 22:32:33 10° E
Cosmos 1892 Rocket 3.9 22:24:36 10° N 22:29:02 56° ENE 22:33:24 10° SSE
Okean 2 Rocket 4.2 22:25:58 10° SW 22:30:22 50° WNW 22:34:49 10° N
Cosmos 2360 4.2 22:29:07 10° SSW 22:34:48 74° SE 22:40:31 10° NE
Cosmos 1536 2.8 22:30:55 10° S 22:34:59 74° E 22:39:05 10° NNE
ATLAS 3B R/B 3.0 22:29:30 10° WNW 22:36:16 59° SW 22:42:43 10° SSE
Cosmos 1452 Rocket 3.5 22:36:17 10° SSW 22:41:35 81° ESE 22:46:55 10° NNE
NOSS 3-2 (C) 3.9 22:38:38 10° WNW 22:45:40 86° SSW 22:53:33 10° ESE
Cosmos 1420 Rocket 4.0 22:42:29 10° SSW 22:47:38 69° ESE 22:52:49 10° NE
Cosmos 1354 Rocket 4.3 22:45:27 10° NNW 22:50:47 66° NE 22:55:41 12° SE
SPOT 1/Viking Rocket 3.8 22:46:09 10° S 22:51:23 73° WSW 22:56:39 10° NNW
Abrixas rocket 4.4 22:51:20 10° SSW 22:52:23 11° S 22:52:46 11° SSE
PSLV R/B 4.5 22:50:40 12° ESE 22:52:35 23° ENE 22:54:51 10° N
Cosmos 2278 Rocket 2.6 22:49:05 10° NW 22:54:44 59° NE 23:00:12 11° ESE
CZ-4C R/B 4.5 22:51:56 11° ESE 22:54:49 26° ENE 22:57:48 10° N
Cosmos 1544 Rocket 4.5 22:52:32 12° SSE 22:56:09 32° E 23:00:08 10° NNE
Nadezhda 1 Rocket 4.2 22:51:16 10° N 22:57:29 64° ENE 23:03:18 12° SSE
Okean 2 4.0 22:53:28 10° NNW 22:57:30 55° W 23:01:30 10° S
Cosmos 1515 4.2 22:55:11 10° NNW 22:58:57 58° W 23:02:42 10° S
Cosmos 2263 Rocket 3.7 22:56:11 10° NW 23:01:08 31° WSW 23:06:04 10° S
Landsat 7 4.0 22:59:53 10° SSE 23:04:39 75° WSW 23:09:27 10° NNW
Cosmos 2322 Rocket 2.2 23:00:51 10° SSW 23:06:28 62° ESE 23:12:06 10° NE
Meteor 1-29 3.8 23:04:48 10° N 23:08:12 52° WNW 23:11:33 10° SW
Cosmos 1455 Rocket 3.8 23:05:50 14° SSE 23:09:12 36° E 23:13:19 10° NNE
Cosmos 1844 Rocket 2.8 23:05:16 10° NW 23:10:57 73° SW 23:15:48 14° SSE
ARGOS 4.3 23:06:48 10° SSW 23:11:50 40° W 23:16:55 10° NNW
ATLAS 2AS CENTAUR R/B 3.5 23:04:42 10° S 23:11:53 40° ESE 23:19:17 10° ENE
USA 229 DEB 4.0 23:06:00 10° WSW 23:12:57 78° NNW 23:20:07 10° ENE
USA 229 4.0 23:06:08 10° WSW 23:13:04 78° NNW 23:20:13 10° ENE
SL-16 R/B 2.2 23:09:27 10° SSW 23:15:05 68° ESE 23:20:45 10° NE
Cosmos 1503 Rocket 4.1 23:09:44 10° NNW 23:15:08 87° NE 23:19:35 16° SSE
SeaSat 1 3.2 23:11:11 10° NE 23:16:03 59° NW 23:20:54 10° WSW
Cosmos 1437 Rocket 4.0 23:13:51 16° SE 23:16:05 26° E 23:19:25 10° NE
NOSS 3-1 (A) 3.6 23:11:38 10° SW 23:17:49 79° SSE 23:25:00 10° ENE
Terra 1.9 23:15:40 13° SSE 23:19:58 76° WSW 23:24:47 10° NNW
Cosmos 2322 4.3 23:16:23 10° S 23:21:30 36° ESE 23:26:39 10° NE
Cosmos 839 Rocket 4.0 23:16:16 10° SW 23:22:24 76° SE 23:29:11 10° NE
Okean 1 Rocket 3.5 23:18:26 10° SSW 23:22:46 63° WNW 23:27:10 10° N
ALOS 2 4.0 23:21:24 12° ESE 23:24:51 29° NE 23:28:39 10° N
Cosmos 1500 3.2 23:22:05 11° S 23:25:45 72° E 23:29:38 10° NNE
COSMOS 2428 3.8 23:24:02 16° SSE 23:27:21 26° ESE 23:32:02 10° NE
H-2A R/B 3.1 23:25:14 10° SSW 23:30:00 39° W 23:34:41 10° NNW
CENTAUR R/B 3.0 23:23:17 10° WNW 23:30:37 87° NNE 23:38:50 10° ESE
Cosmos 2219 Rocket 3.7 23:28:55 15° SE 23:31:17 19° E 23:35:11 10° ENE
Cosmos 1844 3.9 23:27:51 10° NW 23:33:28 66° WSW 23:37:50 17° SSE
ERBS 3.2 23:30:40 10° SW 23:33:43 29° SSE 23:36:46 10° E
Spot 4 3.8 23:31:48 17° SSE 23:35:29 86° ENE 23:40:19 10° NNW
CZ-2C R/B 4.2 23:31:42 10° NE 23:35:39 20° E 23:38:29 14° ESE
Cosmos 405 3.0 23:34:44 16° S 23:37:27 66° ESE 23:41:03 10° NNE
Cosmos 1184 Rocket 4.5 23:35:20 10° N 23:38:08 24° ENE 23:40:04 15° ESE
CARTOSAT-1 4.2 23:36:43 13° S 23:40:25 51° W 23:44:40 10° NNW
Cosmos 2344 4.4 23:32:04 10° W 23:40:35 74° N 23:52:02 10° E
Cosmos 2333 Rocket 3.7 23:39:35 16° SE 23:41:44 19° E 23:45:35 10° ENE
Cosmos 1602 Rocket 3.5 23:37:53 10° NNW 23:42:18 89° ENE 23:45:20 20° SSE
Cosmos 2360 Rocket 2.3 23:36:57 10° SSW 23:42:26 53° ESE 23:47:54 10° NE
Cosmos 1980 Rocket 3.1 23:38:19 10° WSW 23:43:48 52° NW 23:49:19 10° NE
ATLAS CENTAUR R/B 1.6 23:40:25 10° WNW 23:44:06 58° NNE 23:47:34 11° ESE
Cosmos 1842 3.3 23:40:23 10° NNW 23:44:20 74° ENE 23:46:47 22° SSE
Cosmos 1707 4.2 23:41:32 10° N 23:44:52 26° ENE 23:47:17 15° ESE
Helios 1B rocket 4.5 23:42:10 10° N 23:45:45 29° WNW 23:49:19 10° WSW
Cosmos 1975 2.8 23:44:47 14° SSW 23:48:13 88° E 23:52:15 10° NNE
USA 215 3.4 23:42:32 12° ESE 23:48:35 58° SSW 23:55:04 10° W
GEOS 3 Rocket 3.9 23:43:26 10° ESE 23:48:41 73° NNE 23:54:02 10° WNW
NOSS 3-1 (C) 3.8 23:42:27 10° WSW 23:48:46 81° NNW 23:56:05 10° ENE
CZ-4 R/B 4.3 23:44:45 10° NNE 23:49:15 42° E 23:52:10 20° SSE
IGS 5A 4.3 23:46:08 14° S 23:49:32 44° W 23:53:34 10° NNW
H-2A R/B 2.4 23:50:48 18° S 23:53:53 62° WSW 23:58:17 10° NNW
